Weather History for Taloyoak, NU

Change the Weather History Date:

Friday, February 8, 2013

  Actual Average Record
Temperature  
Mean Temperature -32 °F -  
Max Temperature -29 °F -18 °F 10 °F (2006)
Min Temperature -36 °F -30 °F -49 °F (2002)
Degree Days  
Heating Degree Days 98    
Moisture  
Dew Point -38 °F    
Average Humidity 68    
Maximum Humidity 75    
Minimum Humidity 53    
Precipitation  
Precipitation 0.00 in - - ()
Sea Level Pressure  
Sea Level Pressure 29.87 in    
Wind  
Wind Speed 2 mph ()    
Max Wind Speed 7 mph    
Max Gust Speed -    
Visibility 14.9 miles    
Events Snow    
Averages and records for this station are not official NWS values.
T = Trace of Precipitation, MM = Missing Value Source: Averaged Metar Reports

Daily Weather History Graph

Daily Weather History Graph

Search for Another Location

Airport:

Trip Planner

Search our weather history database for the weather conditions in past years. The results will help you decide how hot, cold, wet, or windy it might be!

Date:

Astronomy

Feb. 08, 2013 Rise Set
Actual Time 9:15 AM CST 3:42 PM CST
Civil Twilight 8:02 AM CST 4:55 PM CST
Nautical Twilight 6:50 AM CST 6:08 PM CST
Astronomical Twilight 5:41 AM CST 7:17 PM CST
Moon 8:19 AM CST (2/8) 1:50 PM CST (2/8)
Length of Visible Light 8h 52m
Length of Day
6h 27m
Waning Crescent, 3% of the Moon is Illuminated
Feb 8
Waning Crescent
Feb 10
New
Feb 17
First Quarter
Feb 25
Full
Mar 4
Last Quarter

Hourly Weather History & Observations

Time (CST) Temp. Windchill Dew Point Humidity Pressure Visibility Wind Dir Wind Speed Gust Speed Precip Events Conditions
12:00 AM -28 °F - -34 °F 57% 29.86 in 15 mi Calm Calm - - Snow Snow
12:00 AM -27.4 °F - -34.6 °F 69% 29.86 in 15.0 mi Calm Calm - N/A   Mostly Cloudy
1:00 AM -27.4 °F - -34.6 °F 69% 29.86 in 12.0 mi Calm Calm - N/A   Mostly Cloudy
2:00 AM -29.2 °F - -34.6 °F 75% 29.86 in 15.0 mi Calm Calm - N/A   Mostly Cloudy
3:00 AM -27.4 °F - -34.6 °F 69% 29.87 in 15.0 mi Calm Calm - N/A   Mostly Cloudy
4:00 AM -29.2 °F - -36.4 °F 68% 29.87 in 15.0 mi South 2.3 mph - N/A   Mostly Cloudy
5:00 AM -29.2 °F -44.0 °F -36.4 °F 68% 29.88 in 15.0 mi South 4.6 mph - N/A   Mostly Cloudy
6:00 AM -31 °F - -37 °F 56% 29.87 in 15 mi South 3.5 mph - - Snow Snow
6:00 AM -31.0 °F -43.3 °F -36.4 °F 75% 29.87 in 15.0 mi South 3.5 mph - N/A   Mostly Cloudy
7:00 AM -31.0 °F -48.4 °F -36.4 °F 75% 29.86 in 15.0 mi SSE 5.8 mph - N/A   Mostly Cloudy
8:00 AM -31.0 °F -50.3 °F -36.4 °F 75% 29.86 in 15.0 mi SE 6.9 mph - N/A   Mostly Cloudy
9:00 AM -32.8 °F -48.2 °F -40.0 °F 68% 29.86 in 15.0 mi SSE 4.6 mph - N/A   Partly Cloudy
10:00 AM -34.6 °F -50.3 °F -41.8 °F 68% 29.87 in 15.0 mi SSW 4.6 mph - N/A   Partly Cloudy
11:00 AM -32.8 °F - -40.0 °F 68% 29.86 in 15.0 mi South 2.3 mph - N/A   Mostly Cloudy
11:06 AM - - - N/A% - 15.0 mi South 2.3 mph - N/A   Mostly Cloudy
12:00 PM -32 °F - -39 °F 54% 29.86 in 15 mi SSE 2.3 mph - - Snow Light Snow
12:00 PM -32.8 °F - -38.2 °F 75% 29.86 in 15.0 mi SSE 2.3 mph - N/A   Mostly Cloudy
1:00 PM -31.0 °F - -38.2 °F 68% 29.86 in 15.0 mi SSE 2.3 mph - N/A   Mostly Cloudy
2:00 PM -31.0 °F -46.1 °F -36.4 °F 75% 29.86 in 15.0 mi South 4.6 mph - N/A   Mostly Cloudy
3:00 PM -31.0 °F -48.4 °F -38.2 °F 68% 29.87 in 15.0 mi SSE 5.8 mph - N/A   Mostly Cloudy
4:00 PM -31.0 °F -50.3 °F -38.2 °F 68% 29.87 in 15.0 mi SSE 6.9 mph - N/A   Mostly Cloudy
5:00 PM -31.0 °F - -38.2 °F 68% 29.88 in 15.0 mi South 2.3 mph - N/A   Partly Cloudy
6:00 PM -33 °F - -40 °F 53% 29.89 in 15 mi SSW 2.3 mph - -   Scattered Clouds
6:00 PM -32.8 °F - -40.0 °F 68% 29.89 in 15.0 mi SSW 2.3 mph - N/A   Partly Cloudy
7:00 PM -34.6 °F -47.4 °F -40.0 °F 75% 29.89 in 15.0 mi South 3.5 mph - N/A   Partly Cloudy
8:00 PM -34.6 °F - -41.8 °F 68% 29.89 in 15.0 mi South 2.3 mph - N/A   Clear
9:00 PM -36.4 °F -49.4 °F - N/A% 29.89 in 15.0 mi SSE 3.5 mph - N/A   Clear
10:00 PM -36.4 °F -49.4 °F - N/A% 29.90 in 15.0 mi South 3.5 mph - N/A   Clear
11:00 PM -36.4 °F -49.4 °F - N/A% 29.90 in 15.0 mi South 3.5 mph - N/A   Clear